Flag for Canada Weather past 2 weeks in Creston, British Columbia, Canada

Now
62 °F

Refreshingly cool.


Feels Like: 62 °F
Forecast: 44 / 82 °F
Wind: 6 mph from Northwest

Location: Creston

Current Time: Sep 15, 2014 at 10:18:12 PM

Latest Report: Sep 15, 2014 at 10:00 PM


Visibility: N/A

Pressure: 29.97 "Hg

Humidity: 51%

Dew point: 43 °F

Location of CrestonLocation

Historic Weather in Creston — Graph

°F

Creston temperature yesterday

Maximum temperature yesterday: 76 °F (at 5:00 PM)
Minimum temperature yesterday: 44 °F (at 7:00 AM)
Average temperature yesterday: 58 °F

Past Weeks' High & Low Weather Summary

 TemperatureHumidityPressure
High81 °F (Sep 7, 4:00 PM)100% (Sep 2, 11:00 PM)30.60 "Hg (Sep 2, 11:00 PM)
Low37 °F (Sep 11, 6:00 AM)25% (Sep 13, 3:00 PM)29.65 "Hg (Sep 3, 1:00 AM)
Average57 °F62%30.07 "Hg
* Reported Aug 31 9:00 PM — Sep 15 9:00 PM, Creston, Weather by CustomWeather, © 2014

Note: Actual official high and low records may vary slightly from our data, if they occured in-between our weather recording intervals... More about our weather records

Advertising

Creston weather history for previous 24 hours

 ConditionsComfort  
Time TempWeatherWind HumidityBarometerVisibility
9:00 PM
Sep 15
62 °FRefreshingly cool.2 mph53%29.97 "HgN/A
8:00 PM60 °FCool.5 mph60%29.97 "HgN/A
7:00 PM66 °FMild.2 mph59%29.96 "HgN/A
6:00 PM73 °FMild.5 mph44%29.95 "HgN/A
5:00 PM77 °FPleasantly warm.1 mph30%29.96 "HgN/A
4:00 PM77 °FMild.3 mph34%29.97 "HgN/A
3:00 PM74 °FMild.5 mph37%29.99 "HgN/A
2:00 PM71 °FMild.5 mph39%30.02 "HgN/A
1:00 PM69 °FMild.2 mph42%30.04 "HgN/A
12:00 PM66 °FMild.3 mph47%30.07 "HgN/A
11:00 AM62 °FMild.2 mph55%30.08 "HgN/A
10:00 AM59 °FCool.2 mph60%30.10 "HgN/A
9:00 AM55 °FCool.1 mph70%30.11 "HgN/A
8:00 AM51 °FCool.1 mph74%30.13 "HgN/A
7:00 AM47 °FCool.1 mph78%30.12 "HgN/A
6:00 AM48 °FCool.1 mph75%30.10 "HgN/A
5:00 AM49 °FCool.5 mph72%30.09 "HgN/A
4:00 AM50 °FCool.1 mph71%30.08 "HgN/A
3:00 AM50 °FCool.3 mph72%30.07 "HgN/A
2:00 AM54 °FCool.1 mph62%30.07 "HgN/A
1:00 AM56 °FRefreshingly cool.3 mph59%30.07 "HgN/A
12:00 AM56 °FRefreshingly cool.1 mph57%30.06 "HgN/A
11:00 PM
Sep 14
58 °FRefreshingly cool.1 mph59%30.05 "HgN/A
10:00 PM58 °FRefreshingly cool.3 mph56%30.05 "HgN/A
Weather by CustomWeather, © 2014

See weather overviewHow to use our weather pages